When you browse on this site, cookies collect data to enhance your experience and personalize the content and advertising you see.
Visit our Privacy Policy to learn more. By continuing to use the site, you agree to this use of cookies and data.
  • In Sweden
  • List of Countries
  • For 7 days
  • Water Temperature
  • Satellite Maps
  • Weather Map
  • Weather Widgets
  • user-avatar
    Login

    Hourly Weather Burhaniye

    Today, 18 November, Sunday

    Time Temperature Precipitation Wind Pressure Humidity
    00:00 +8°C° 0 mm 4 mps 764 mmHg 83%
    01:00 +8°C° 0 mm 4 mps 764 mmHg 83%
    02:00 +9°C° 0 mm 3 mps 764 mmHg 82%
    03:00 +9°C° 0 mm 3 mps 764 mmHg 81%
    04:00 +9°C° 0 mm 3 mps 763 mmHg 80%
    05:00 +8°C° 0 mm 4 mps 763 mmHg 78%
    06:00 +8°C° 0.2 mm 4 mps 763 mmHg 78%
    07:00 +8°C° 0.2 mm 4 mps 763 mmHg 77%
    08:00 +10°C° 0.2 mm 4 mps 762 mmHg 77%
    09:00 +10°C° 0.6 mm 3 mps 762 mmHg 77%
    10:00 +11°C° 0.6 mm 3 mps 762 mmHg 78%
    11:00 +11°C° 0.6 mm 3 mps 762 mmHg 78%
    12:00 +11°C° 0.9 mm 3 mps 761 mmHg 80%
    13:00 +11°C° 0.9 mm 3 mps 760 mmHg 81%
    14:00 +12°C° 0.9 mm 3 mps 760 mmHg 83%
    15:00 +12°C° 1.1 mm 3 mps 759 mmHg 85%
    16:00 +12°C° 1.1 mm 3 mps 759 mmHg 88%
    17:00 +13°C° 1.1 mm 2 mps 758 mmHg 90%
    18:00 +13°C° 0.9 mm 2 mps 758 mmHg 91%
    19:00 +12°C° 0.9 mm 3 mps 757 mmHg 91%
    20:00 +12°C° 0.9 mm 3 mps 757 mmHg 92%
    21:00 +13°C° 0.5 mm 3 mps 757 mmHg 92%
    22:00 +13°C° 0.5 mm 3 mps 757 mmHg 92%
    23:00 +13°C° 0.5 mm 3 mps 757 mmHg 92%

    Tomorrow, 19 November, Monday

    Time Temperature Precipitation Wind Pressure Humidity
    00:00 +13°C° 0.1 mm 4 mps 756 mmHg 92%
    01:00 +14°C° 0.1 mm 4 mps 756 mmHg 91%
    02:00 +14°C° 0.1 mm 4 mps 756 mmHg 91%
    03:00 +14°C° 0 mm 5 mps 756 mmHg 90%
    04:00 +14°C° 0 mm 5 mps 756 mmHg 89%
    05:00 +13°C° 0 mm 5 mps 756 mmHg 89%
    06:00 +14°C° 0.1 mm 5 mps 756 mmHg 87%
    07:00 +14°C° 0.1 mm 5 mps 756 mmHg 86%
    08:00 +14°C° 0.1 mm 5 mps 756 mmHg 85%
    09:00 +15°C° 0.2 mm 5 mps 757 mmHg 83%
    10:00 +16°C° 0.2 mm 5 mps 757 mmHg 82%
    11:00 +17°C° 0.2 mm 4 mps 758 mmHg 80%
    12:00 +17°C° 0.4 mm 5 mps 758 mmHg 77%
    13:00 +19°C° 0.4 mm 5 mps 758 mmHg 75%
    14:00 +20°C° 0.4 mm 6 mps 758 mmHg 72%
    15:00 +19°C° 0.3 mm 4 mps 758 mmHg 77%
    16:00 +18°C° 0.3 mm 3 mps 758 mmHg 81%
    17:00 +17°C° 0.3 mm 2 mps 759 mmHg 86%
    18:00 +17°C° 0.1 mm 2 mps 759 mmHg 87%
    19:00 +16°C° 0.1 mm 2 mps 760 mmHg 89%
    20:00 +16°C° 0.1 mm 1 mps 760 mmHg 91%
    21:00 +16°C° 0.1 mm 1 mps 761 mmHg 92%
    22:00 +15°C° 0.1 mm 1 mps 761 mmHg 92%
    23:00 +15°C° 0.1 mm 1 mps 762 mmHg 92%

    Day after tomorrow, 20 November, Tuesday

    Time Temperature Precipitation Wind Pressure Humidity
    00:00 +15°C° 0 mm 1 mps 762 mmHg 92%
    01:00 +15°C° 0 mm 1 mps 762 mmHg 92%
    02:00 +15°C° 0 mm 1 mps 762 mmHg 92%
    03:00 +15°C° 0 mm 1 mps 762 mmHg 92%
    04:00 +15°C° 0 mm 2 mps 762 mmHg 92%
    05:00 +15°C° 0 mm 2 mps 762 mmHg 91%
    06:00 +15°C° 0 mm 2 mps 763 mmHg 90%
    07:00 +15°C° 0 mm 2 mps 763 mmHg 89%
    08:00 +15°C° 0 mm 2 mps 763 mmHg 89%
    09:00 +17°C° 0 mm 2 mps 763 mmHg 83%
    10:00 +18°C° 0 mm 2 mps 763 mmHg 77%
    11:00 +19°C° 0 mm 2 mps 763 mmHg 72%
    12:00 +20°C° 0 mm 2 mps 763 mmHg 70%
    13:00 +20°C° 0 mm 3 mps 763 mmHg 68%
    14:00 +21°C° 0 mm 3 mps 762 mmHg 66%
    15:00 +20°C° 0 mm 2 mps 762 mmHg 69%
    16:00 +19°C° 0 mm 2 mps 762 mmHg 73%
    17:00 +18°C° 0 mm 2 mps 762 mmHg 76%
    18:00 +18°C° 0 mm 2 mps 762 mmHg 77%
    19:00 +18°C° 0 mm 2 mps 762 mmHg 78%
    20:00 +17°C° 0 mm 2 mps 762 mmHg 79%
    21:00 +17°C° 0 mm 2 mps 762 mmHg 79%
    22:00 +17°C° 0 mm 2 mps 762 mmHg 79%
    23:00 +17°C° 0 mm 2 mps 761 mmHg 79%

    21 November, Wednesday

    Time Temperature Precipitation Wind Pressure Humidity
    00:00 +17°C° 0 mm 2 mps 761 mmHg 78%
    01:00 +17°C° 0 mm 2 mps 761 mmHg 78%
    02:00 +17°C° 0 mm 2 mps 761 mmHg 78%
    03:00 +16°C° 0.1 mm 2 mps 760 mmHg 78%
    04:00 +16°C° 0.1 mm 2 mps 760 mmHg 78%
    05:00 +16°C° 0.1 mm 3 mps 759 mmHg 79%
    06:00 +16°C° 0.1 mm 3 mps 759 mmHg 79%
    07:00 +16°C° 0.1 mm 3 mps 759 mmHg 80%
    08:00 +17°C° 0.1 mm 3 mps 759 mmHg 80%
    09:00 +17°C° 0.3 mm 4 mps 759 mmHg 78%
    10:00 +18°C° 0.3 mm 4 mps 759 mmHg 76%
    11:00 +18°C° 0.3 mm 4 mps 759 mmHg 74%
    12:00 +17°C° 0.5 mm 5 mps 758 mmHg 74%
    13:00 +17°C° 0.5 mm 5 mps 758 mmHg 75%
    14:00 +17°C° 0.5 mm 6 mps 757 mmHg 75%
    15:00 +17°C° 0.2 mm 5 mps 757 mmHg 78%
    16:00 +17°C° 0.2 mm 4 mps 757 mmHg 80%
    17:00 +17°C° 0.2 mm 3 mps 757 mmHg 83%
    18:00 +16°C° 0.1 mm 3 mps 757 mmHg 85%
    19:00 +16°C° 0.1 mm 3 mps 757 mmHg 88%
    20:00 +14°C° 0.1 mm 3 mps 757 mmHg 91%
    21:00 +14°C° 0.1 mm 3 mps 757 mmHg 91%
    22:00 +14°C° 0.1 mm 3 mps 757 mmHg 91%
    23:00 +14°C° 0.1 mm 3 mps 757 mmHg 91%

    22 November, Thursday

    Time Temperature Precipitation Wind Pressure Humidity
    00:00 +14°C° 0.1 mm 3 mps 757 mmHg 91%
    01:00 +15°C° 0.1 mm 2 mps 757 mmHg 92%
    02:00 +14°C° 0.1 mm 2 mps 757 mmHg 92%
    03:00 +14°C° 0.1 mm 2 mps 757 mmHg 92%
    04:00 +14°C° 0.1 mm 2 mps 758 mmHg 92%
    05:00 +14°C° 0.1 mm 2 mps 758 mmHg 92%
    06:00 +14°C° 0.1 mm 2 mps 758 mmHg 92%
    07:00 +14°C° 0.1 mm 2 mps 758 mmHg 92%
    08:00 +14°C° 0.1 mm 1 mps 759 mmHg 92%
    09:00 +16°C° 0.1 mm 2 mps 759 mmHg 84%
    10:00 +17°C° 0.1 mm 2 mps 759 mmHg 76%
    11:00 +19°C° 0.1 mm 2 mps 759 mmHg 69%
    12:00 +19°C° 0.2 mm 3 mps 759 mmHg 67%
    13:00 +19°C° 0.2 mm 3 mps 759 mmHg 65%
    14:00 +19°C° 0.2 mm 3 mps 759 mmHg 63%
    15:00 +18°C° 0.1 mm 3 mps 759 mmHg 67%
    16:00 +17°C° 0.1 mm 3 mps 760 mmHg 72%
    17:00 +15°C° 0.1 mm 2 mps 760 mmHg 77%
    18:00 +15°C° 0 mm 2 mps 760 mmHg 78%
    19:00 +14°C° 0 mm 2 mps 761 mmHg 80%
    20:00 +13°C° 0 mm 2 mps 761 mmHg 82%
    21:00 +13°C° 0 mm 2 mps 762 mmHg 82%
    22:00 +11°C° 0 mm 3 mps 762 mmHg 83%
    23:00 +11°C° 0 mm 3 mps 762 mmHg 83%

    23 November, Friday

    Time Temperature Precipitation Wind Pressure Humidity
    00:00 +11°C° 0 mm 3 mps 762 mmHg 84%
    01:00 +11°C° 0 mm 3 mps 762 mmHg 85%
    02:00 +10°C° 0 mm 3 mps 762 mmHg 86%
    03:00 +11°C° 0.1 mm 3 mps 762 mmHg 86%
    04:00 +11°C° 0.1 mm 3 mps 763 mmHg 86%
    05:00 +11°C° 0.1 mm 3 mps 763 mmHg 86%
    06:00 +11°C° 0.3 mm 4 mps 763 mmHg 86%
    07:00 +11°C° 0.3 mm 4 mps 764 mmHg 86%
    08:00 +11°C° 0.3 mm 4 mps 764 mmHg 86%
    09:00 +12°C° 0.3 mm 5 mps 764 mmHg 84%
    10:00 +12°C° 0.3 mm 5 mps 765 mmHg 82%
    11:00 +11°C° 0.3 mm 6 mps 765 mmHg 81%
    12:00 +11°C° 0.2 mm 6 mps 765 mmHg 80%
    13:00 +11°C° 0.2 mm 6 mps 765 mmHg 79%
    14:00 +11°C° 0.2 mm 6 mps 765 mmHg 79%
    15:00 +11°C° 0.1 mm 6 mps 765 mmHg 79%
    16:00 +11°C° 0.1 mm 6 mps 765 mmHg 80%
    17:00 +10°C° 0.1 mm 6 mps 765 mmHg 81%
    18:00 +10°C° 0 mm 6 mps 766 mmHg 81%
    19:00 +10°C° 0 mm 6 mps 766 mmHg 81%
    20:00 +9°C° 0 mm 5 mps 766 mmHg 82%
    21:00 +9°C° 0 mm 5 mps 766 mmHg 82%
    22:00 +9°C° 0 mm 5 mps 766 mmHg 82%
    23:00 +10°C° 0 mm 4 mps 766 mmHg 83%
    Show more